Powrót do katalogu

FENGYUN 1C DEB

AktywnySSO
NORAD 30275·DEBRIS·🇨🇳 China

Wystrzelony May 10, 1999 z Taiyuan Satellite Launch Center

Loading…

Następne Przeloty (najbliższe 24 godziny)

TLE

ŚwieżeSource: Space-Track

Epoka: Sep 14, 2026, 05:16 UTC

1 30275U 99025YL  26257.21965615  .00003795  00000-0  10097-2 0  9992
2 30275  98.6214 351.6246 0037221  76.7347 314.0650 14.48729292 20565

Śledź FENGYUN 1C DEB w czasie rzeczywistym z AllMySat

Download on the App Store